Погода в Бограде

Россия / Республика Хакасия     54°13′38″N   90°50′41″E
темп.,
°C
ветер,
м/с
пор.,
м/с
влажн.,
%
обл.,
%
осадки,
мм/ч
давл.,
гПа
погр.,
м
2 марта, вт
вт201:00−8ю2483100 0.0 100872
04:00−8ююз2482100 0.0 100876
07:00−7юз3780100 0.0 1007150
10:00−4юз31284100 0.0 1007941
13:00−1зсз71275100 0.1 10091606
16:00−3зсз51181100 0.2 10101202
19:00−6зсз3890100 1.0 1013281
22:00−11с119899 0.4 101521
3 марта, ср
ср301:00−14сз119798 0.4 101521
04:00−15сз119696 0.0 101620
07:00−15зсз119696 0.1 101720
10:00−13с119496 0.1 1018115
13:00−10св118995 0.1 1018270
16:00−9всв2292100 0.1 1019272
19:00−12вюв1197100 0.3 102121
22:00−13ююз129389 0.1 102321
4 марта, чт
чт401:00−13юз228386 0.1 102521
04:00−14юз228162 0.0 102621
07:00−16ююз227851 0.0 102823
10:00−11ююв117975 0.0 102859
13:00−8юв247746 0.0 1027393
16:00−6ююв258015 0.0 1025443
19:00−9ююв239056 0.0 102531
22:00−10ю338695 0.0 102434
5 марта, пт
пт501:00−10ю238198 0.0 102327
04:00−10ю2278100 0.0 102224
07:00−12ююв228085 0.0 102224
10:00−9юв239095 0.0 1019121
13:00−6юв358594 0.0 1016286
16:00−5ю3679100 0.0 1015273
19:00−4зюз41477100 0.0 1019597
22:00−6зюз718708 0.0 1023722
6 марта, сб
сб601:00−9ю347437 0.0 102537
04:00−10ю3374100 0.0 102432
07:00−10ю3581100 0.0 1024101
10:00−6ю31083100 0.0 1023555
13:00−1юз41172100 0.0 10211495
16:00−1юз3777100 0.0 1019655
19:00−5ю3376100 0.0 101833
22:00−6ю3370100 0.0 101735